TimePDT,TemperatureF,Dew PointF,Humidity,Sea Level PressureIn,VisibilityMPH,Wind Direction,Wind SpeedMPH,Gust SpeedMPH,PrecipitationIn,Events,Conditions,WindDirDegrees,DateUTC
12:23 AM,42.8,42.8,100,29.84,2.0,WSW,3.5,-,N/A,,Overcast,240,2011-10-10 07:23:00
12:25 AM,42.8,42.8,100,29.84,1.2,Calm,Calm,-,N/A,,Overcast,0,2011-10-10 07:25:00
12:32 AM,42.8,41.0,93,29.83,0.2,Calm,Calm,-,N/A,Fog,Fog,0,2011-10-10 07:32:00
12:56 AM,42.1,41.0,96,29.83,0.8,Calm,Calm,-,N/A,,Overcast,0,2011-10-10 07:56:00
1:01 AM,42.8,42.8,100,29.82,4.0,Calm,Calm,-,N/A,,Overcast,0,2011-10-10 08:01:00
1:56 AM,42.1,41.0,96,29.80,7.0,East,3.5,-,N/A,,Overcast,100,2011-10-10 08:56:00
2:16 AM,42.8,41.0,93,29.80,2.5,Calm,Calm,-,N/A,,Overcast,0,2011-10-10 09:16:00
2:19 AM,42.8,41.0,93,29.79,1.0,Calm,Calm,-,N/A,,Overcast,0,2011-10-10 09:19:00
2:23 AM,42.8,41.0,93,29.79,0.8,Calm,Calm,-,N/A,,Overcast,0,2011-10-10 09:23:00
2:56 AM,42.1,42.1,100,29.77,0.2,Calm,Calm,-,N/A,Fog,Fog,0,2011-10-10 09:56:00
3:12 AM,42.8,42.8,100,29.78,0.2,Calm,Calm,-,N/A,Fog,Fog,0,2011-10-10 10:12:00
3:20 AM,42.8,42.8,100,29.77,0.2,Calm,Calm,-,N/A,Fog,Fog,0,2011-10-10 10:20:00
3:42 AM,42.8,42.8,100,29.76,0.2,Calm,Calm,-,N/A,Fog,Fog,0,2011-10-10 10:42:00
3:56 AM,42.1,42.1,100,29.75,0.2,Variable,3.5,-,N/A,Fog,Fog,0,2011-10-10 10:56:00
4:56 AM,42.1,42.1,100,29.71,0.2,Variable,3.5,-,N/A,Fog,Fog,0,2011-10-10 11:56:00
5:22 AM,42.8,42.8,100,29.70,0.5,Variable,4.6,-,N/A,Fog,Fog,0,2011-10-10 12:22:00
5:43 AM,42.8,42.8,100,29.69,0.5,Variable,4.6,-,N/A,Fog,Fog,0,2011-10-10 12:43:00
5:47 AM,42.8,42.8,100,29.69,0.2,Variable,4.6,-,N/A,Fog,Fog,0,2011-10-10 12:47:00
5:56 AM,42.1,42.1,100,29.69,0.2,Variable,4.6,-,N/A,Fog,Fog,0,2011-10-10 12:56:00
6:12 AM,42.8,42.8,100,29.69,0.2,Variable,3.5,-,N/A,Fog,Fog,0,2011-10-10 13:12:00
6:56 AM,42.1,42.1,100,29.67,0.2,Variable,4.6,-,N/A,Fog,Fog,0,2011-10-10 13:56:00
7:56 AM,42.1,42.1,100,29.66,0.2,Variable,4.6,-,0.01,Fog-Rain,Light Rain,0,2011-10-10 14:56:00
8:56 AM,42.1,42.1,100,29.63,0.2,Variable,5.8,-,0.02,Fog,Fog,0,2011-10-10 15:56:00
9:56 AM,42.1,42.1,100,29.62,0.2,East,8.1,-,0.03,Fog-Rain,Light Rain,100,2011-10-10 16:56:00
10:56 AM,43.0,42.1,97,29.62,0.2,Variable,4.6,-,0.05,Fog-Rain,Light Rain,0,2011-10-10 17:56:00
11:56 AM,42.1,42.1,100,29.60,0.2,Variable,5.8,-,0.02,Fog-Rain,Light Rain,0,2011-10-10 18:56:00
12:56 PM,43.0,43.0,100,29.62,0.2,Variable,3.5,-,0.07,Fog-Rain,Light Rain,0,2011-10-10 19:56:00
1:56 PM,44.1,44.1,100,29.60,0.2,Calm,Calm,-,0.02,Fog,Fog,0,2011-10-10 20:56:00
2:13 PM,42.8,42.8,100,29.60,0.8,Calm,Calm,-,N/A,,Overcast,0,2011-10-10 21:13:00
2:32 PM,44.6,44.6,100,29.60,0.2,Calm,Calm,-,0.00,Fog,Fog,0,2011-10-10 21:32:00
2:56 PM,45.0,44.1,97,29.59,0.2,Calm,Calm,-,0.00,Fog,Fog,0,2011-10-10 21:56:00
3:28 PM,44.6,44.6,100,29.58,1.0,ESE,3.5,-,N/A,,Overcast,110,2011-10-10 22:28:00
3:32 PM,44.6,44.6,100,29.57,2.0,East,3.5,-,N/A,,Overcast,100,2011-10-10 22:32:00
3:40 PM,44.6,44.6,100,29.58,1.8,East,3.5,-,N/A,,Overcast,100,2011-10-10 22:40:00
3:45 PM,44.6,44.6,100,29.58,1.2,Calm,Calm,-,0.00,Rain,Light Rain,0,2011-10-10 22:45:00
3:56 PM,44.1,44.1,100,29.58,1.2,Calm,Calm,-,0.04,Rain,Rain,0,2011-10-10 22:56:00
3:59 PM,44.6,44.6,100,29.58,2.0,Calm,Calm,-,0.00,Rain,Light Rain,0,2011-10-10 22:59:00
4:10 PM,44.6,44.6,100,29.58,1.8,Calm,Calm,-,0.00,Rain,Light Rain,0,2011-10-10 23:10:00
4:15 PM,44.6,44.6,100,29.58,1.0,Calm,Calm,-,0.01,Rain,Light Rain,0,2011-10-10 23:15:00
4:22 PM,46.4,44.6,93,29.57,1.5,Calm,Calm,-,0.02,Rain,Light Rain,0,2011-10-10 23:22:00
4:24 PM,46.4,44.6,93,29.57,3.0,Calm,Calm,-,0.02,Rain,Light Rain,0,2011-10-10 23:24:00
4:32 PM,46.4,44.6,93,29.57,2.5,Variable,3.5,-,0.03,Rain,Light Rain,0,2011-10-10 23:32:00
4:36 PM,46.4,44.6,93,29.58,1.0,Variable,4.6,-,0.05,Rain,Rain,0,2011-10-10 23:36:00
4:42 PM,44.6,44.6,100,29.59,0.2,Variable,5.8,-,0.08,Fog-Rain,Rain,0,2011-10-10 23:42:00
4:51 PM,44.6,44.6,100,29.59,0.5,West,12.7,23.0,0.12,Fog-Rain,Rain,270,2011-10-10 23:51:00
4:56 PM,45.0,44.1,97,29.59,1.5,West,8.1,26.5,0.14,Rain,Light Rain,270,2011-10-10 23:56:00
5:00 PM,44.6,44.6,100,29.59,3.0,West,9.2,26.5,0.00,Rain,Light Rain,270,2011-10-11 00:00:00
5:56 PM,44.1,43.0,96,29.60,10.0,West,11.5,27.6,0.00,,Overcast,270,2011-10-11 00:56:00
6:43 PM,42.8,42.8,100,29.62,2.5,WNW,10.4,23.0,0.02,Rain,Light Rain,290,2011-10-11 01:43:00
6:52 PM,42.8,42.8,100,29.62,7.0,West,11.5,27.6,0.02,Rain,Light Rain,270,2011-10-11 01:52:00
6:56 PM,43.0,42.1,97,29.63,9.0,West,11.5,27.6,0.02,Rain,Light Rain,270,2011-10-11 01:56:00
7:14 PM,42.8,41.0,93,29.63,10.0,West,11.5,31.1,0.00,,Overcast,280,2011-10-11 02:14:00
7:17 PM,42.8,41.0,93,29.62,10.0,West,15.0,31.1,0.00,,Overcast,280,2011-10-11 02:17:00
7:31 PM,42.8,41.0,93,29.62,10.0,West,13.8,25.3,0.00,,Overcast,280,2011-10-11 02:31:00
7:56 PM,42.1,41.0,96,29.64,10.0,WNW,11.5,24.2,0.00,,Overcast,290,2011-10-11 02:56:00
8:56 PM,42.1,42.1,100,29.63,2.5,Variable,5.8,-,N/A,,Overcast,0,2011-10-11 03:56:00
9:03 PM,42.8,42.8,100,29.62,1.2,Variable,4.6,-,N/A,,Overcast,0,2011-10-11 04:03:00
9:05 PM,42.8,42.8,100,29.62,1.5,Variable,4.6,-,N/A,,Overcast,0,2011-10-11 04:05:00
9:10 PM,42.8,42.8,100,29.62,1.2,Variable,6.9,-,N/A,,Overcast,0,2011-10-11 04:10:00
9:20 PM,42.8,42.8,100,29.63,0.8,Calm,Calm,-,N/A,,Overcast,0,2011-10-11 04:20:00
9:41 PM,42.8,41.0,93,29.63,4.0,WNW,9.2,-,0.01,,Overcast,290,2011-10-11 04:41:00
9:51 PM,42.8,41.0,93,29.63,10.0,WNW,5.8,-,0.01,,Overcast,290,2011-10-11 04:51:00
9:56 PM,42.1,41.0,96,29.63,10.0,Variable,5.8,-,0.01,,Overcast,0,2011-10-11 04:56:00
10:11 PM,42.8,41.0,93,29.62,10.0,Calm,Calm,-,N/A,,Overcast,0,2011-10-11 05:11:00
10:19 PM,42.8,41.0,93,29.62,10.0,Calm,Calm,-,N/A,,Mostly Cloudy,0,2011-10-11 05:19:00
10:56 PM,42.1,41.0,96,29.62,8.0,Calm,Calm,-,0.01,Rain,Light Rain,0,2011-10-11 05:56:00
11:26 PM,42.8,41.0,93,29.61,4.0,Calm,Calm,-,0.04,Rain,Rain,0,2011-10-11 06:26:00
11:56 PM,42.1,41.0,96,29.62,4.0,Calm,Calm,-,0.09,Rain,Light Rain,0,2011-10-11 06:56:00